Zurück zum Katalog

STARLINK-35076

AktivKommunikationSSO
NORAD 65457·PAYLOAD·🇺🇸 United States

Gestartet Sep 3, 2025 von Vandenberg Space Force Base

Loading…

Nächste Überflüge (nächste 24 Stunden)

TLE

AktuellSource: CelesTrak SupGP

Epoche: Sep 14, 2026, 15:30 UTC

1 65457C 25194Z   26257.64631944 -.00035203  00000+0 -10929-2 0  2571
2 65457  97.2842 107.4016 0001568  87.7350 239.7630 15.33452768    15

Verfolge STARLINK-35076 in Echtzeit mit AllMySat

Download on the App Store